Change the Weather History Date:

Monday, February 11, 2013

  Actual Average Record
Temperature  
Mean Temperature 52 °F -  
Max Temperature 60 °F 53 °F 73 °F (1999)
Min Temperature 44 °F 29 °F 14 °F (1955)
Degree Days  
Heating Degree Days 12    
Growing Degree Days 2 (Base 50)    
Moisture  
Dew Point 46 °F    
Average Humidity 77    
Maximum Humidity 93    
Minimum Humidity 57    
Precipitation  
Precipitation 0.01 in - - ()
Sea Level Pressure  
Sea Level Pressure 30.10 in    
Wind  
Wind Speed 6 mph (West)    
Max Wind Speed 9 mph    
Max Gust Speed -    
Visibility 10 miles    
Events Rain    
Averages and records for this station are not official NWS values.
T = Trace of Precipitation, MM = Missing Value Source: NWS Daily Summary

Daily Weather History Graph

Daily Weather History Graph

Search for Another Location

Airport or City:

Trip Planner

Search our weather history database for the weather conditions in past years. The results will help you decide how hot, cold, wet, or windy it might be!

Date:

Astronomy

Feb. 11, 2013 Rise Set
Actual Time 6:37 AM CST 5:27 PM CST
Civil Twilight 6:11 AM CST 5:53 PM CST
Nautical Twilight 5:41 AM CST 6:23 PM CST
Astronomical Twilight 5:12 AM CST 6:52 PM CST
Moon 7:07 AM CST (2/11) 7:16 PM CST (2/11)
Length of Visible Light 11h 42m
Length of Day
10h 50m
Waxing Crescent, 3% of the Moon is Illuminated
Feb 11
Waxing Crescent
Feb 17
First Quarter
Feb 25
Full
Mar 4
Last Quarter
Mar 11
New

Hourly Weather History & Observations

Time (CST) Temp. Windchill Dew Point Humidity Pressure Visibility Wind Dir Wind Speed Gust Speed Precip Events Conditions
12:05 AM 60.8 °F - 57.2 °F 88% 29.98 in 10.0 mi WSW 4.6 mph - 0.00 in Rain Light Rain
12:53 AM 60.1 °F - 57.9 °F 93% 30.00 in 9.0 mi WSW 9.2 mph - 0.00 in   Overcast
1:37 AM 60.8 °F - 57.2 °F 88% 30.02 in 10.0 mi WSW 6.9 mph - 0.00 in   Overcast
1:53 AM 60.1 °F - 57.9 °F 93% 30.01 in 10.0 mi WSW 4.6 mph - 0.00 in Rain Light Rain
2:04 AM 60.8 °F - 57.2 °F 88% 30.03 in 10.0 mi WSW 6.9 mph - 0.00 in Rain Light Rain
2:53 AM 59.0 °F - 57.0 °F 93% 30.02 in 10.0 mi WSW 6.9 mph - 0.01 in   Overcast
3:53 AM 59.0 °F - 53.1 °F 81% 30.01 in 10.0 mi West 8.1 mph - N/A   Overcast
4:53 AM 57.9 °F - 54.0 °F 87% 30.03 in 10.0 mi West 6.9 mph - N/A   Overcast
5:53 AM 57.0 °F - 53.1 °F 87% 30.06 in 10.0 mi WNW 6.9 mph - N/A   Mostly Cloudy
6:53 AM 55.9 °F - 51.1 °F 84% 30.08 in 10.0 mi WNW 6.9 mph - N/A   Partly Cloudy
7:53 AM 55.0 °F - 51.1 °F 86% 30.11 in 10.0 mi West 3.5 mph - N/A   Clear
8:53 AM 54.0 °F - 48.9 °F 83% 30.14 in 10.0 mi West 8.1 mph - N/A   Clear
9:53 AM 54.0 °F - 45.0 °F 72% 30.14 in 10.0 mi West 9.2 mph - N/A   Clear
10:53 AM 53.1 °F - 37.9 °F 57% 30.16 in 10.0 mi WNW 6.9 mph - N/A   Clear
11:53 AM 53.1 °F - 41.0 °F 64% 30.15 in 10.0 mi NW 8.1 mph - N/A   Scattered Clouds
12:53 PM 52.0 °F - 37.9 °F 59% 30.16 in 10.0 mi NW 8.1 mph - N/A   Partly Cloudy
1:53 PM 52.0 °F - 37.0 °F 57% 30.14 in 10.0 mi WNW 6.9 mph - N/A   Clear
2:53 PM 52.0 °F - 37.0 °F 57% 30.13 in 10.0 mi West 5.8 mph - N/A   Clear
3:53 PM 52.0 °F - 37.9 °F 59% 30.12 in 10.0 mi West 3.5 mph - N/A   Clear
4:53 PM 51.1 °F - 39.0 °F 63% 30.11 in 10.0 mi WSW 3.5 mph - N/A   Clear
5:53 PM 48.9 °F - 37.9 °F 66% 30.13 in 10.0 mi WSW 3.5 mph - N/A   Clear
6:53 PM 46.9 °F - 39.9 °F 77% 30.11 in 10.0 mi Calm Calm - N/A   Clear
7:53 PM 46.0 °F 44.8 °F 41.0 °F 83% 30.12 in 10.0 mi North 3.5 mph - N/A   Clear
8:53 PM 48.0 °F - 37.9 °F 68% 30.20 in 10.0 mi WNW 6.9 mph - N/A   Clear
9:53 PM 45.0 °F - 39.0 °F 80% 30.14 in 10.0 mi Calm Calm - N/A   Clear
10:53 PM 45.0 °F - 39.0 °F 80% 30.16 in 10.0 mi Calm Calm - N/A   Partly Cloudy
11:53 PM 44.1 °F - 39.9 °F 85% 30.14 in 10.0 mi Calm Calm - N/A   Partly Cloudy